HULIANWANG DIGUI-75

导读

HULIANWANG DIGUI-75(互联网低轨-75)是中国于2025年8月25日发射的低轨互联网卫星,属于中国低轨卫星互联网组网建设的组成部分。低轨互联网卫星具备传输时延短、路径损耗低等特点,该卫星入轨后将与同系列卫星共同构建天地一体化网络,为全球范围内提供宽带互联网接入服务,推动中国卫星互联网星座的部署进程,支撑移动通信、物联网等领域的泛在互联需求。

基本信息
目录编号:
65307
目录名称:
HULIANWANG DIGUI-75
国际标识:
2025-187C
轨道中心:
EARTH
卫星名称:
HULIANWANG DIGUI-75
卫星全名:
HULIANWANG DIGUI-75
卫星状态:
在轨 (已飞行336 天)
发射日期:
2025-08-25 UTC
国别 :
中国 (CN)
星等 :
--
轨道信息
数据来源 国际轨道数据 AOE轨道数据
星历时间 2026-07-27T23:01:10+0800
8小时前
查看轨道信息
2026-07-28T01:00:00+0800
6小时前
查看轨道信息
半长轴 7527.454km 7527.454km
偏心率 0.0000096 0.000001
轨道倾角 50.009° 50.009°
近地点辐角 104.101° 89.723°
升交点赤经 60.648° 60.353°
平近点角 255.987° 305.514°
近地点 1149.244km 1149.309km
远地点 1149.39km 1149.325km
周期 108.326分钟 108.326分钟
每日圈数 13.293233 13.293235
详细信息
使用方式:
暂无
2D轨道图
3D轨道图
轨道高度分析图
轨道倾角分析图
轨道综合分析图
查看轨道综合分析图